Location: Berg
(47.2344°N, 9.5296°E)
Time: 23:06:09
(UTC+00:00)

AAUSAT CUBESAT 2 - Pass Details

Date: 02 December 2021
Orbit: 571 x 586 km, 97.5° (Epoch: 19 January)

Event Time Altitude Azimuth Distance (km) Brightness Sun altitude
Rises 05:16:28 0° 5° (N) 2,796 ? -15.1°
Reaches altitude 10° 05:18:44 10° 357° (N) 1,895 ? -14.7°
Maximum altitude 05:22:29 36° 291° (WNW) 920 ? -14.1°
Drops below altitude 10° 05:26:15 10° 224° (SW) 1,889 ? -13.5°
Sets 05:28:31 0° 216° (SW) 2,786 ? -13.2°
